EXS64ED LGKF-EGKK

Flight info

Callsign EXS64ED
Flight time N/A
Altitude 38000
Route LATAN DCT LUPAL DCT ULFIG DCT MOKTO DCT LIKNO DCT PETAS DCT LUTOR DCT BOA DCT ABESI DCT UTAVO DCT HOC DCT LUL DCT RLP DCT ROTSI DCT KOTUN DCT NINAL DCT KESAX DCT KUNAV
Aircraft A21N/M-SDE2E3FGHIJ1RWXY/LB1

Departure

Time 2026-05-09 13:31
Airport Kefallinia Airport (LGKF)

Arrival

Time N/A
Airport London Gatwick Airport (EGKK)
Time Latitude Longitude Altitude Speed Heading
2026-05-09 13:07 38.11853 20.50441 73 ft 0 kts 56°
2026-05-09 13:23 38.11850 20.50345 63 ft 4 kts 139°
2026-05-09 13:23 38.11829 20.50358 63 ft 3 kts 147°
2026-05-09 13:24 38.11826 20.50361 65 ft 1 kts 146°
2026-05-09 13:27 38.11811 20.50369 65 ft 6 kts 164°
2026-05-09 13:27 38.11756 20.50328 70 ft 11 kts 212°
2026-05-09 13:27 38.11685 20.50320 65 ft 12 kts 156°
2026-05-09 13:27 38.11611 20.50378 69 ft 13 kts 145°
2026-05-09 13:28 38.11535 20.50442 68 ft 14 kts 149°
2026-05-09 13:28 38.11455 20.50509 62 ft 14 kts 146°
2026-05-09 13:28 38.11368 20.50579 61 ft 15 kts 133°
2026-05-09 13:28 38.11279 20.50658 57 ft 16 kts 146°
2026-05-09 13:29 38.11183 20.50741 61 ft 17 kts 145°
2026-05-09 13:29 38.11134 20.50827 64 ft 12 kts 151°
2026-05-09 13:29 38.11112 20.50808 61 ft 4 kts 298°
2026-05-09 13:29 38.11130 20.50784 64 ft 0 kts 329°
2026-05-09 13:30 38.11134 20.50780 61 ft 0 kts 325°
2026-05-09 13:30 38.11142 20.50773 59 ft 15 kts 325°
2026-05-09 13:30 38.11460 20.50506 67 ft 91 kts 327°
2026-05-09 13:31 38.12164 20.49905 65 ft 150 kts 326°
2026-05-09 13:31 38.13072 20.49141 562 ft 152 kts 326°
2026-05-09 13:31 38.13933 20.48373 1117 ft 157 kts 318°
2026-05-09 13:31 38.14789 20.47417 1532 ft 172 kts 322°
2026-05-09 13:32 38.15824 20.46522 1992 ft 188 kts 326°
2026-05-09 13:32 38.18143 20.44472 3116 ft 214 kts 325°
2026-05-09 13:32 38.19369 20.43370 3820 ft 218 kts 325°
2026-05-09 13:33 38.20619 20.42244 4570 ft 222 kts 325°
2026-05-09 13:33 38.21887 20.41102 5324 ft 224 kts 324°
2026-05-09 13:33 38.23160 20.39951 6086 ft 225 kts 323°
2026-05-09 13:33 38.24439 20.38794 6802 ft 227 kts 323°
2026-05-09 13:34 38.25704 20.37608 7440 ft 229 kts 316°
2026-05-09 13:34 38.26636 20.35886 7780 ft 249 kts 291°
2026-05-09 13:34 38.27134 20.33700 8225 ft 263 kts 285°
2026-05-09 13:34 38.27584 20.31424 8969 ft 266 kts 287°
2026-05-09 13:35 38.28330 20.29299 9795 ft 265 kts 306°
2026-05-09 13:35 38.29575 20.27533 10423 ft 274 kts 314°
2026-05-09 13:35 38.30988 20.25781 10710 ft 294 kts 314°
2026-05-09 13:35 38.32493 20.23923 11177 ft 305 kts 314°
2026-05-09 13:36 38.34021 20.22031 11852 ft 309 kts 314°
2026-05-09 13:36 38.35565 20.20107 12576 ft 312 kts 313°
2026-05-09 13:36 38.37117 20.18161 13301 ft 314 kts 313°
2026-05-09 13:36 38.38681 20.16199 14001 ft 317 kts 313°
2026-05-09 13:37 38.40231 20.14249 14622 ft 319 kts 313°
2026-05-09 13:37 38.41818 20.12252 15244 ft 322 kts 313°
2026-05-09 13:37 38.43417 20.10241 15875 ft 324 kts 313°
2026-05-09 13:37 38.45027 20.08214 16493 ft 327 kts 314°
2026-05-09 13:38 38.46646 20.06170 17103 ft 329 kts 314°
2026-05-09 13:38 38.48286 20.04101 17717 ft 332 kts 314°
2026-05-09 13:38 38.49933 20.02019 18312 ft 335 kts 314°
2026-05-09 13:38 38.51592 19.99923 18828 ft 337 kts 314°
2026-05-09 13:39 38.53264 19.97811 19369 ft 339 kts 314°
2026-05-09 13:39 38.54943 19.95686 19875 ft 341 kts 313°
2026-05-09 13:39 38.56640 19.93541 20379 ft 344 kts 313°
2026-05-09 13:39 38.58344 19.91379 20873 ft 347 kts 313°
2026-05-09 13:40 38.60061 19.89200 21359 ft 350 kts 313°
2026-05-09 13:40 38.61794 19.86995 21843 ft 353 kts 313°
2026-05-09 13:40 38.63539 19.84777 22342 ft 355 kts 313°